Location: Bald Rock
(37.3738°N, 119.9354°W)
Time: 12:15:56
(UTC+00:00)

GP-B - Pass Details

Date: 08 September 2024
Orbit: 623 x 626 km, 89.8° (Epoch: 11 October)

Event Time Altitude Azimuth Distance (km) Brightness Sun altitude
Rises 12:25:43 0° 159° (SSE) 2,901 6.5 -14.5°
Reaches altitude 10° 12:28:01 10° 152° (SSE) 1,999 5.8 -14.1°
Maximum altitude 12:32:08 40° 83° (E) 925 4.6 -13.3°
Drops below altitude 10° 12:36:16 10° 14° (NNE) 2,011 6.1 -12.5°
Sets 12:38:34 0° 7° (N) 2,922 6.8 -12.1°
